This is the latest recevied weather packets stored in our database for station/object K4AVM-13. If no packets are shown the sender has not sent any weather packets the latest 10 day(s).
| Time | Temp. | Humidity | Pressure | Rain* | Wind** | Luminosity | Snow |
|---|---|---|---|---|---|---|---|
| 1777574326 | 22.78° C | 50% | 1009.4 hPa | 0 mm | - | 718 W/m² | - |
| 1777574026 | 21.67° C | 50% | 1009.6 hPa | 0 mm | - | 749 W/m² | - |
| 1777573721 | 21.67° C | 51% | 1009.8 hPa | 0 mm | - | 672 W/m² | - |
| 1777573418 | 22.22° C | 50% | 1009.7 hPa | 0 mm | - | 813 W/m² | - |
| 1777573114 | 21.67° C | 52% | 1009.7 hPa | 0 mm | - | 850 W/m² | - |
| 1777572811 | 20.56° C | 54% | 1009.9 hPa | 0 mm | - | 459 W/m² | - |
| 1777572506 | 20.56° C | 52% | 1010 hPa | 0 mm | - | 226 W/m² | - |
| 1777572202 | 20.56° C | 56% | 1010.1 hPa | 0 mm | - | 270 W/m² | - |
| 1777571897 | 20.56° C | 57% | 1010 hPa | 0 mm | - | 214 W/m² | - |
| 1777571592 | 21.67° C | 55% | 1010 hPa | 0 mm | - | 735 W/m² | - |
| 1777571291 | 22.22° C | 53% | 1010.1 hPa | 0 mm | - | 157 W/m² | - |
| 1777570986 | 22.22° C | 52% | 1010.1 hPa | 0 mm | - | 768 W/m² | - |
| 1777570683 | 21.11° C | 54% | 1010.3 hPa | 0 mm | - | 760 W/m² | - |
| 1777570379 | 20.56° C | 56% | 1010.2 hPa | 0 mm | - | 733 W/m² | - |
| 1777570075 | 20° C | 59% | 1010.3 hPa | 0 mm | - | 732 W/m² | - |
| 1777569771 | 19.44° C | 61% | 1010.2 hPa | 0 mm | - | 94 W/m² | - |
| 1777569466 | 20.56° C | 57% | 1010.3 hPa | 0 mm | - | 107 W/m² | - |
| 1777569164 | 21.67° C | 59% | 1010.4 hPa | 0 mm | - | 853 W/m² | - |
| 1777568860 | 20.56° C | 58% | 1010.5 hPa | 0 mm | - | 796 W/m² | - |
| 1777568557 | 20° C | 62% | 1010.9 hPa | 0 mm | - | 884 W/m² | - |
| 1777568254 | 19.44° C | 60% | 1010.8 hPa | 0 mm | - | 262 W/m² | - |
| 1777567951 | 19.44° C | 60% | 1010.8 hPa | 0 mm | - | 278 W/m² | - |
| 1777567647 | 19.44° C | 60% | 1011.1 hPa | 0 mm | - | 223 W/m² | - |
| 1777567345 | 20° C | 60% | 1010.9 hPa | 0 mm | - | 273 W/m² | - |
| 1777567043 | 19.44° C | 62% | 1010.6 hPa | 0 mm | - | 269 W/m² | - |
* Rain latest hour (hover to see other rain measurements)
** Current wind speed in m/s (hover to see current wind gust speed)